Regional Weather Roundup
Issued by NWS

Home | Current Version | Previous Version | Graphics & Text | Print | Product List | Glossary On
Versions: 1 2 3 4 5 6 7 8 9 10 11 12 13 14 15 16 17 18 19 20 21 22 23 24 25 26 27 28 29 30 31 32 33 34 35 36 37 38 39 40 41 42 43 44 45 46 47 48 49 50
068
ASUS43 KFSD 231702
RWRSD

WEATHER ROUNDUP FOR SOUTH DAKOTA
NATIONAL WEATHER SERVICE SIOUX FALLS SD
1100 AM CST TUE JAN 23 2018

NOTE: "FAIR" INDICATES FEW OR NO CLOUDS BELOW 12,000 FEET WITH NO
SIGNIFICANT WEATHER AND/OR OBSTRUCTIONS TO VISIBILITY.


SDZ001>005-009-010-012>017-231800-
NORTHWEST AND NORTH CENTRAL SOUTH DAKOTA

CITY           SKY/WX    TMP DP  RH WIND       PRES   REMARKS
BUFFALO          N/A     31  20  63 W15       30.06R WCI  20
FAITH            N/A     34  25  69 W16       30.10R WCI  24
MOBRIDGE       PTSUNNY   27  23  85 NW8       30.06R WCI  19
$$

SDZ012>016-024>037-041>051-057-063-072>074-231800-
SOUTHWEST AND SOUTH CENTRAL SOUTH DAKOTA

CITY           SKY/WX    TMP DP  RH WIND       PRES   REMARKS
RAPID CTY ARPT SUNNY     40  19  43 NW17      30.15R
PIERRE         PTSUNNY   28  26  92 W9        30.11R WCI  19
CUSTER         SUNNY     28  13  53 W13G21    30.09R WCI  17
ELLSWORTH AFB  SUNNY     40  18  40 NW17      30.13R
PHILIP         CLOUDY    37  29  72 NW17      30.14R
PINE RIDGE     SUNNY     28  22  78 W10       30.19R WCI  19
SPEARFISH        N/A     34  18  51 W16       30.16R WCI  23
WINNER         FAIR      34  27  75 W14       30.13R WCI  25
$$

SDZ004>011-016>023-039-040-231800-
NORTHEAST SOUTH DAKOTA

CITY           SKY/WX    TMP DP  RH WIND       PRES   REMARKS
ABERDEEN       CLOUDY    23  20  88 SW7       30.11R FOG     WCI  15
WATERTOWN      CLOUDY    19  19 100 W6        30.07F FOG     WCI  11
BROOKINGS      CLOUDY    20  18  92 MISG      30.11R FOG
SISSETON         N/A     21  18  88 W3        30.11R
$$

SDZ017-020-022-023-036>040-048>070-231800-
SOUTHEAST SOUTH DAKOTA

CITY           SKY/WX    TMP DP  RH WIND       PRES   REMARKS
SIOUX FALLS    CLOUDY    22  20  92 NW9       30.14R WCI  12
HURON          CLOUDY    21  20  96 SW3       30.13S FOG
CHAMBERLAIN    PTSUNNY   22  22 100 CALM      30.12S
MITCHELL       CLOUDY    22  20  92 W6        30.16R WCI  14
YANKTON        CLOUDY    22  20  92 NW10      30.17R WCI  11
$$

ABBREVIATIONS USED IN REMARKS
   TC - TEMPERATURE IN CELSIUS
  WCI - WIND CHILL INDEX
   HX - HEAT INDEX
  VSB - VISIBILITY





USA.gov is the U.S. government's official web portal to all federal, state and local government web resources and services.